User: anonymous   Login
Location: Unspecified
(0.0000°N, 0.0000°E)
Time: 06:58:06
(UTC+00:00)
Language:

DX 1 - Orbit

View from above orbital plane
View from above orbital plane
View from above satellite
View from above satellite

Ground track
Ground track

The orbit data is extracted from the following two-line orbital elements,

1 40071U 14037C   17202.92558883 +.00000158 +00000-0 +27803-4 0  9995
2 40071 098.3409 315.3784 0007510 307.9165 052.1355 14.81028208164110
Epoch (UTC): 21 July 2017 22:12:50
Eccentricity: 0.0007510
inclination: 98.3409°
perigee height: 621 km
apogee height: 631 km
right ascension of ascending node: 315.3784°
argument of perigee: 307.9165°
revolutions per day: 14.81028208
mean anomaly at epoch: 52.1355°
orbit number at epoch: 16411

The dashed part of the orbit path shows where the satellite is in the earth's shadow,  

DLR